This demonstration page uses our WeatherBlox Daily Observations layout. Learn more.

Left ArrowRight Arrow

Hourly Observations for September 13, 2016

Temp ( °F °C ) Dew Point ( °F °C ) Humidity (%) Winds ( mph kmh ) Pressure ( in mb ) Visibility ( mi km ) Precip ( " mm )
12:15 am 00:15 Cloudy 64 18 63 17 94 94 N N/A 30.21 1023 10 16 N/A
12:35 am 00:35 Cloudy 66 19 63 17 88 88 N N/A 30.21 1023 10 16 N/A
12:55 am 00:55 Cloudy 68 20 61 16 78 78 N N/A 30.21 1023 10 16 N/A
1:15 am 01:15 Cloudy 68 20 63 17 83 83 N N/A 30.21 1023 10 16 N/A
1:35 am 01:35 Cloudy 68 20 61 16 78 78 N N/A 30.21 1023 10 16 N/A
1:55 am 01:55 Cloudy 70 21 63 17 78 78 N N/A 30.21 1023 10 16 N/A
2:15 am 02:15 Cloudy 68 20 63 17 83 83 N N/A 30.21 1023 10 16 N/A
2:35 am 02:35 Partly Cloudy 68 20 63 17 83 83 N N/A 30.21 1023 10 16 N/A
2:55 am 02:55 Partly Cloudy 68 20 63 17 83 83 N N/A 30.21 1023 10 16 N/A
3:15 am 03:15 Mostly Cloudy 64 18 63 17 94 94 N N/A 30.21 1023 10 16 N/A
3:35 am 03:35 Partly Cloudy 66 19 63 17 88 88 S 3 6 30.21 1023 10 16 N/A
3:55 am 03:55 Mostly Cloudy 68 20 63 17 83 83 N N/A 30.21 1023 10 16 N/A
4:15 am 04:15 Cloudy 66 19 63 17 88 88 S 3 6 30.21 1023 10 16 N/A
4:35 am 04:35 Mostly Cloudy 64 18 63 17 94 94 N N/A 30.21 1023 10 16 N/A
4:55 am 04:55 Partly Cloudy 64 18 63 17 94 94 N N/A 30.21 1023 10 16 N/A
5:15 am 05:15 Clear 64 18 63 17 94 94 N N/A 30.21 1023 10 16 N/A
5:35 am 05:35 Clear 64 18 63 17 94 94 N N/A 30.21 1023 10 16 N/A
5:55 am 05:55 Clear 64 18 63 17 94 94 SSE 3 6 30.21 1023 10 16 N/A
6:15 am 06:15 Clear 66 19 64 18 94 94 SSE 3 6 30.21 1023 10 16 N/A
6:35 am 06:35 Clear 63 17 63 17 100 100 SSE 5 7 30.21 1023 10 16 N/A
6:55 am 06:55 Sunny 64 18 64 18 100 100 S 3 6 30.24 1024 10 16 N/A
7:15 am 07:15 Sunny 63 17 63 17 100 100 SSW 3 6 30.24 1024 10 16 N/A
7:35 am 07:35 Sunny 64 18 64 18 100 100 S 3 6 30.24 1024 10 16 N/A
7:55 am 07:55 Sunny 66 19 64 18 94 94 S 3 6 30.24 1024 10 16 N/A
8:15 am 08:15 Sunny 68 20 64 18 88 88 S 6 9 30.24 1024 10 16 N/A
8:35 am 08:35 Sunny 68 20 64 18 88 88 S 6 9 30.24 1024 10 16 N/A
8:55 am 08:55 Sunny 72 22 66 19 83 83 SSE 9 15 30.24 1024 10 16 N/A
9:15 am 09:15 Sunny 72 22 66 19 83 83 S 12 19 30.24 1024 10 16 N/A
9:35 am 09:35 Sunny 73 23 68 20 83 83 S 10 17 30.24 1024 10 16 N/A
9:55 am 09:55 Sunny 77 25 68 20 74 74 S 14 22 30.24 1024 10 16 N/A
10:15 am 10:15 Sunny 79 26 66 19 65 65 SW 12 19 30.24 1024 10 16 N/A
10:35 am 10:35 Sunny 79 26 68 20 70 70 SSW 13 20 30.21 1023 10 16 N/A
10:55 am 10:55 Sunny 79 26 68 20 70 70 S 13 20 30.21 1023 10 16 N/A
11:15 am 11:15 Partly Cloudy 81 27 68 20 66 66 SSW 9 15 30.21 1023 10 16 N/A
11:35 am 11:35 Partly Cloudy 82 28 68 20 62 62 S 13 20 30.21 1023 10 16 N/A
11:55 am 11:55 Partly Cloudy 82 28 68 20 62 62 S 13 20 30.21 1023 10 16 N/A
12:15 pm 12:15 Partly Cloudy 84 29 68 20 58 58 WSW 8 13 30.18 1022 10 16 N/A
12:35 pm 12:35 Partly Cloudy 86 30 68 20 55 55 S 14 22 30.18 1022 10 16 N/A
12:55 pm 12:55 Sunny 86 30 68 20 55 55 SSW 9 15 30.18 1022 10 16 N/A
1:15 pm 13:15 Sunny 88 31 68 20 52 52 SW 8 13 30.15 1021 10 16 N/A
1:35 pm 13:35 Sunny 88 31 68 20 52 52 WSW 13 20 30.15 1021 10 16 N/A
1:55 pm 13:55 Sunny 88 31 68 20 52 52 SW 12 19 30.15 1021 10 16 N/A
2:15 pm 14:15 Sunny 90 32 66 19 46 46 WSW 12 19 30.12 1020 10 16 N/A
2:35 pm 14:35 Sunny 90 32 64 18 43 43 S 8 13 30.09 1019 10 16 N/A
2:55 pm 14:55 Sunny 90 32 66 19 46 46 SW 10 17 30.09 1019 10 16 N/A
3:15 pm 15:15 Partly Cloudy 90 32 66 19 46 46 SW 10 17 30.09 1019 10 16 N/A
3:35 pm 15:35 Partly Cloudy 90 32 64 18 43 43 SW 10 17 30.06 1018 10 16 N/A
3:55 pm 15:55 Sunny 91 33 64 18 41 41 WSW 13 20 30.06 1018 10 16 N/A
4:15 pm 16:15 Partly Cloudy 91 33 64 18 41 41 SW 9 15 30.06 1018 10 16 N/A
4:35 pm 16:35 Sunny 91 33 66 19 44 44 S 8 13 30.06 1018 10 16 N/A
4:55 pm 16:55 Sunny 90 32 64 18 43 43 SSW 8 13 30.06 1018 10 16 N/A
5:15 pm 17:15 Partly Cloudy 90 32 66 19 46 46 SSW 10 17 30.06 1018 10 16 N/A
5:35 pm 17:35 Sunny 90 32 66 19 46 46 SSW 12 19 30.06 1018 10 16 N/A
5:55 pm 17:55 Sunny 90 32 68 20 49 49 SW 10 17 30.06 1018 10 16 N/A
6:15 pm 18:15 Sunny 88 31 68 20 52 52 S 17 28 30.09 1019 10 16 N/A
6:35 pm 18:35 Sunny 88 31 68 20 52 52 SSW 13 20 30.09 1019 10 16 N/A
6:55 pm 18:55 Sunny 86 30 68 20 55 55 S 12 19 30.09 1019 10 16 N/A
7:15 pm 19:15 Sunny 86 30 68 20 55 55 S 8 13 30.09 1019 10 16 N/A
7:35 pm 19:35 Clear 86 30 68 20 55 55 S 8 13 30.09 1019 10 16 N/A
7:55 pm 19:55 Clear 84 29 70 21 62 62 SSE 7 11 30.09 1019 10 16 N/A
8:15 pm 20:15 Clear 82 28 70 21 66 66 SSE 6 9 30.12 1020 10 16 N/A
8:35 pm 20:35 Clear 82 28 70 21 66 66 SSE 6 9 30.12 1020 10 16 N/A
8:55 pm 20:55 Clear 82 28 70 21 66 66 SSE 6 9 30.12 1020 10 16 N/A
9:15 pm 21:15 Clear 81 27 70 21 70 70 SE 6 9 30.12 1020 10 16 N/A
9:35 pm 21:35 Clear 81 27 70 21 70 70 SE 6 9 30.12 1020 10 16 N/A
9:55 pm 21:55 Clear 81 27 70 21 70 70 SSE 9 15 30.12 1020 10 16 N/A
10:15 pm 22:15 Clear 79 26 70 21 74 74 SSE 8 13 30.12 1020 10 16 N/A
10:35 pm 22:35 Clear 79 26 70 21 74 74 SE 10 17 30.12 1020 10 16 N/A
10:55 pm 22:55 Clear 79 26 70 21 74 74 S 8 13 30.12 1020 10 16 N/A
11:15 pm 23:15 Clear 77 25 70 21 79 79 S 10 17 30.12 1020 10 16 N/A
11:35 pm 23:35 Clear 77 25 70 21 79 79 SSE 8 13 30.12 1020 10 16 N/A
11:55 pm 23:55 Clear 77 25 70 21 79 79 S 9 15 30.12 1020 10 16 N/A

Powered by AerisWeather